User: anonymous   Login
Location: Unspecified
(0.0000°N, 0.0000°E)
Time: 23:18:42
(UTC+00:00)
Language:

RISAT 1 - Orbit

View from above orbital plane
View from above orbital plane
View from above satellite
View from above satellite

Ground track
Ground track

The orbit data is extracted from the following two-line orbital elements,

1 38248U 12017A   16037.42265446  .00000957  00000-0  64627-4 0  9996
2 38248  97.5637  45.9575 0003462 321.0120 176.0479 15.08942987208325
Epoch (UTC): 06 February 2016 10:08:37
Eccentricity: 0.0003462
inclination: 97.5637°
perigee height: 537 km
apogee height: 542 km
right ascension of ascending node: 45.9575°
argument of perigee: 321.0120°
revolutions per day: 15.08942987
mean anomaly at epoch: 176.0479°
orbit number at epoch: 20832

The dashed part of the orbit path shows where the satellite is in the earth's shadow,  

DLR